Location: Holmes Observatory
(37.1039°N, 122.0513°W)
Time: 03:47:34
(UTC-08:00)

Daily predictions for brighter satellites

Satellite Brightness Start Highest point End
(mag) Time Altitude Azimuth Time Altitude Azimuth Time Altitude Azimuth
USA 234 4.2 03:26:54 10° ENE 03:32:32 38° ESE 03:32:32 38° ESE
ATLAS 5 CENTAUR R/B 4.2 03:51:19 17° NNE 03:51:19 17° NNE 03:52:35 10° NNE
Cosmos 1943 Rocket 3.7 03:56:39 28° NNE 03:56:39 28° NNE 03:59:12 10° NNE
ADEOS II 2.9 04:06:06 10° NNE 04:09:35 43° NNE 04:09:35 43° NNE
CZ-4B R/B 3.6 04:09:41 10° NNE 04:14:01 55° N 04:14:01 55° N
ATLAS CENTAUR R/B 3.5 04:16:12 65° W 04:17:02 69° SW 04:33:59 10° SSE
Okean-O 3.6 04:20:02 10° NNE 04:24:17 44° E 04:25:43 33° SE
Lacrosse 5 3.4 04:34:59 24° NNW 04:34:59 24° NNW 04:37:59 10° NNE
Okean 2 Rocket 4.1 04:30:24 10° N 04:34:37 44° E 04:38:49 10° SSE
Delta 2 Rocket 3.8 04:37:46 61° SSE 04:37:46 61° SSE 04:42:37 10° E
Cosmos 1244 Rocket 4.3 04:34:34 10° N 04:40:48 84° W 04:46:57 10° S
RUBIN 8/PSLV 4.4 04:45:10 10° N 04:49:33 84° W 04:50:08 66° SSW
Meteor 1-14 Rocket 4.1 04:45:22 10° N 04:51:11 86° W 04:56:49 10° S
Cosmos 1656 Rocket 3.8 04:53:03 49° W 04:53:47 53° WNW 04:59:21 10° NNE
Cosmos 1954 Rocket 3.9 04:51:29 13° NNW 04:56:12 65° WSW 05:01:27 10° S
GEOS 3 Rocket 3.4 04:53:22 10° SSE 04:58:27 79° WSW 05:01:51 22° NW
CZ-4C R/B 2.4 04:58:12 42° WNW 04:58:51 44° NW 05:04:29 10° NNE
Meteor 1-31 Rocket 2.6 04:57:17 10° N 05:01:05 66° WNW 05:01:05 66° WNW
Cosmos 1420 Rocket 3.9 04:59:34 39° SW 05:01:23 62° WNW 05:06:32 10° N
Meteor 1-26 Rocket 4.4 05:01:02 39° WSW 05:02:20 46° WNW 05:07:43 10° N
COSMO-SKYMED 1 3.8 04:59:08 10° SE 05:03:14 43° ENE 05:07:21 10° N
S3M 3.9 04:58:42 10° S 05:05:03 78° W 05:11:21 10° N
Cosmos 2219 3.1 05:00:26 10° NNW 05:06:07 88° WSW 05:11:45 10° SSE
Cosmos 2227 Rocket 4.1 05:03:28 10° N 05:08:25 30° ENE 05:13:19 10° ESE
Meteor 1-25 Rocket 4.2 05:04:06 10° N 05:09:58 84° W 05:15:47 10° S
Cosmos 1553 Rocket 3.9 05:04:51 10° SSW 05:10:59 67° W 05:17:16 10° N
NOAA 6 4.0 05:08:06 10° NNE 05:13:17 89° E 05:18:25 10° SSW
Okean 1-7 3.3 05:14:14 40° W 05:14:28 40° W 05:18:30 10° N
USA 238 DEB 4.4 05:08:42 10° SSW 05:15:30 57° ESE 05:22:21 10° NE
USA 238 4.4 05:08:47 10° SSW 05:15:35 56° ESE 05:22:26 10° NE
USA 234 3.4 05:09:39 10° NE 05:16:00 55° NW 05:19:54 24° WSW
Cosmos 2221 Rocket 4.2 05:16:50 34° W 05:16:52 34° WNW 05:21:01 10° NNW
Meteor 2-10 Rocket 4.1 05:16:55 31° W 05:17:06 31° WNW 05:21:36 10° NNW
Thor Agena Rocket 3.7 05:24:09 10° S 05:29:13 50° W 05:34:14 10° NNW
SKYMED 3 4.5 05:28:51 10° S 05:33:10 83° WSW 05:37:31 10° NNW
Cosmos 1110 Rocket 4.2 05:28:37 10° S 05:33:45 74° ESE 05:38:55 10° NNE
CZ-4 R/B 4.3 05:31:47 10° NE 05:34:59 21° E 05:38:08 10° SE
ATLAS 3B R/B 2.9 05:28:00 10° SW 05:35:35 71° WNW 05:42:55 10° NNE
Meteor 1-10 Rocket 4.2 05:31:33 10° SSW 05:37:03 64° W 05:42:41 10° N
Cosmos 1943 Rocket 4.1 05:38:12 11° NW 05:38:20 11° NW 05:39:28 10° NW
Meteor 1-28 Rocket 3.2 05:35:25 10° SSE 05:39:07 83° ENE 05:42:52 10° N
Cosmos 1741 Rocket 4.1 05:38:29 10° NNW 05:43:33 51° WSW 05:48:37 10° S
CZ-2C R/B 4.2 05:39:58 10° NNE 05:44:33 36° E 05:49:13 10° SSE
Cosmos 1709 Rocket 4.2 05:38:52 10° N 05:45:00 75° E 05:51:08 10° SSE
Cosmos 1300 Rocket 4.1 05:41:39 10° N 05:46:02 63° E 05:50:22 10° SSE
COSMOS 2455 3.5 05:44:13 10° S 05:50:06 60° ESE 05:56:02 10° NE
ADEOS II 3.9 05:48:42 10° NW 05:50:20 11° WNW 05:50:33 11° WNW
SKYMED 2 3.7 05:47:02 10° S 05:51:14 50° W 05:55:28 10° NNW
Tiangong 1 2.5 05:51:09 13° NW 05:53:12 25° N 05:55:44 10° ENE
Okean 3 4.3 05:49:33 10° S 05:53:44 56° E 05:57:58 10° NNE
Cosmos 1536 4.1 05:52:06 10° N 05:55:58 46° E 05:59:50 10° SSE
Okean-O 4.2 05:57:45 10° NNW 06:00:23 16° WNW 06:02:59 10° WSW
Lacrosse 5 rocket 1.8 05:57:12 10° NNW 06:00:43 51° NE 06:04:14 10° ESE
Cosmos 2315 Rocket 4.0 05:55:02 10° S 06:01:23 76° W 06:07:46 10° N
Cosmos 1674 Rocket 3.7 05:57:36 10° SSW 06:01:54 54° W 06:06:16 10° N
Cosmos 1378 Rocket 3.8 05:57:55 10° S 06:02:16 75° E 06:06:37 10° N
CSL-04 Rocket 3.7 05:57:56 10° NNE 06:03:22 86° WNW 06:08:51 10° SSW
Radarsat Rocket 4.5 05:57:57 10° N 06:04:40 48° WNW 06:10:38 10° SW
Cosmos 1606 3.8 06:02:18 10° SW 06:05:29 24° WNW 06:08:42 10° NNW
BREEZE-M DEB (TANK) 4.5 06:04:03 10° SSW 06:07:36 52° SE 06:20:53 10° NE
Cosmos 2082 3.8 06:04:55 10° NNW 06:10:37 85° ENE 06:16:14 10° SSE
Cosmos 1602 3.9 06:07:14 10° NNW 06:11:07 54° W 06:14:57 10° S
Meteor 1-27 Rocket 3.9 06:05:48 10° SSW 06:11:26 56° WNW 06:17:14 10° N
Cosmos 1782 4.5 06:13:27 10° WSW 06:15:42 15° WNW 06:17:58 10° NW
SJ-12 4.0 06:13:42 10° NNE 06:17:50 84° ESE 06:21:57 10° S
Delta 2 Rocket 4.0 06:15:24 10° W 06:20:15 75° S 06:25:42 10° E
